Location: Northcutt
(34.7304°N, 84.4305°W)
Time: 11:08:57
(UTC+00:00)

Transit 4A - Visible Passes

Search period start: 05 October 2022 00:00
Search period end: 15 October 2022 00:00
Orbit: 870 x 974 km, 66.8° (Epoch: 04 October)

Date Brightness Start Highest point End Pass type
(mag) Time Alt. Az. Time Alt. Az. Time Alt. Az.
05 Oct 10.2 11:05:00 10° N 11:09:21 21° NE 11:13:40 10° E visible
08 Oct 10.6 09:48:38 10° NNE 09:50:09 11° NE 09:51:40 10° ENE visible
09 Oct 9.8 00:49:35 10° SSE 00:50:28 13° SSE 00:50:28 13° SSE visible
09 Oct 10.4 09:56:13 10° N 09:59:49 16° NE 10:03:23 10° E visible
10 Oct 8.8 00:57:58 10° S 01:01:30 31° SSE 01:01:30 31° SSE visible
10 Oct 10.5 02:44:52 10° WSW 02:45:10 11° WSW 02:45:10 11° WSW visible
10 Oct 9.9 10:04:42 10° N 10:09:22 24° NE 10:13:59 10° ESE visible
11 Oct 7.8 01:06:45 10° SSW 01:12:37 64° SE 01:12:37 64° SE visible
11 Oct 10.5 02:55:15 10° W 02:56:16 13° W 02:56:16 13° W visible
11 Oct 9.3 10:13:28 10° N 10:18:48 36° ENE 10:24:05 10° ESE visible
11 Oct 9.5 23:34:19 10° ESE 23:36:31 12° ESE 23:38:42 10° E visible
12 Oct 7.8 01:15:52 10° SSW 01:22:06 84° WNW 01:23:41 53° NNE visible
12 Oct 10.6 03:06:18 10° WNW 03:07:19 12° WNW 03:07:19 12° WNW visible
12 Oct 8.5 10:22:27 10° NNW 10:28:08 54° ENE 10:33:49 10° SE visible
12 Oct 9.1 23:41:10 10° SSE 23:45:30 20° ESE 23:49:45 10° ENE visible
13 Oct 8.4 01:25:17 10° SW 01:31:22 56° WNW 01:34:35 27° N visible
13 Oct 10.5 08:47:45 10° NNE 08:50:13 13° NE 08:52:40 10° ENE visible
13 Oct 7.8 10:31:34 10° NNW 10:37:25 84° ENE 10:43:14 10° SSE visible
13 Oct 8.6 23:49:10 10° SSE 23:54:32 31° ESE 23:59:47 10° NE visible
14 Oct 9.2 01:35:01 10° SW 01:40:42 37° WNW 01:45:12 15° N visible
14 Oct 10.1 08:55:49 10° N 08:59:50 19° NE 09:03:49 10° E visible
14 Oct 7.8 10:40:52 10° NNW 10:46:36 63° WSW 10:52:20 10° SSE visible
